Hourly Data Report for January 10, 2018

All times are specified in Local Standard Time (LST). Add 1 hour to adjust for Daylight Saving Time where and when it is observed.

TORONTO INTL A
ONTARIO

43°40'36.000" N
79°37'50.000" W
173.40 m
6158731
71624
YYZ

Download Data

Hourly Data (January 2018)
Hourly Data Report for January 10, 2018
Temp Definition
°C
Dew Point Temp Definition
°C
Rel Hum Definition
%
Wind Dir Definition
10's deg

Wind Spd Definition
km/h
Visibility Definition
km
Stn Press Definition
kPa
Hmdx Definition


Wind Chill Definition


Weather Definition


TIME
00:00 -1.5 -7.6 63 21 9 24.1 100.70   -5 LegendNANA
01:00 -2.5 -8.2 65 22 7 24.1 100.68   -5 Mainly Clear
02:00 -3.3 -8.5 67 21 8 24.1 100.67   -7 LegendNANA
03:00 -3.5 -8.5 69 19 7 24.1 100.65   -6 LegendNANA
04:00 -3.9 -8.6 70 18 3 24.1 100.60   -5 Clear
05:00 -4.7 -8.6 74 36 3 24.1 100.53   -6 LegendNANA
06:00 -3.3 -6.9 77 15 7 24.1 100.46   -6 LegendNANA
07:00 -3.0 -5.7 81 13 7 19.3 100.41   -6 Mainly Clear
08:00 -3.0 -5.2 85 13 8 19.3 100.37   -6 LegendNANA
09:00 -1.7 -4.2 83 14 9 19.3 100.28   -5 LegendNANA
10:00 -0.3 -3.7 78 16 14 24.1 100.31   -5 Mostly Cloudy
11:00 0.0 -4.0 75 14 12 19.3 100.26   -4 LegendNANA
12:00 0.7 -3.9 71 13 10 19.3 100.04     LegendNANA
13:00 0.5 -3.4 75 13 15 19.3 99.94     Mostly Cloudy
14:00 0.5 -3.3 75 14 14 19.3 99.80     LegendNANA
15:00 0.3 -3.3 77 13 10 12.9 99.74     Drizzle
16:00 0.0 -2.0 86 13 11 4.8 99.69   -4 Rain,Fog
17:00 0.3 -1.2 90 12 10 4.0 99.65     Rain,Fog
18:00 1.0 -0.2 92 12 9 4.0 99.60     Drizzle,Fog
19:00 1.4 0.4 93 14 7 2.4 99.59     Drizzle,Fog
20:00 1.8 0.9 94 16 8 1.6 99.56     Rain,Fog
21:00 1.9 1.1 94 15 7 4.8 99.54     Fog
22:00 2.4 1.6 95 18 9 6.4 99.52     Fog
23:00 4.1 3.4 95 19 12 19.3 99.53     LegendNANA

Notes on Data Quality.

Legend

  • E = Estimated
  • M = Missing
  • NA = Not Available
Date modified: